EHI
3 1 0 0 0 0 0 0 0 0 0 0 0 0 0 0 0 0 0 0 0 0 1 3 5 6 6 5 5 5 6 5 3 1 1 0 0 0 0 0 0 0 0 0 0 0 0 1 3
1 0 0 0 0 0 0 0 0 0 0 0 0 0 0 0 0 0 0 0 0 0 0 3 6 7 7 6 5 5 4 4 3 2 1 1 0 0 0 0 0 0 0 0 0 0 0 1 3
1 1 0 0 0 0 0 0 0 0 0 0 0 0 0 0 0 0 0 0 0 0 0 2 4 5 6 5 4 4 4 4 4 3 2 1 0 0 0 0 0 0 0 0 0 0 0 1 2
3 2 0 0 0 0 0 0 0 0 0 0 0 0 0 0 0 0 0 0 0 0 0 1 1 2 3 3 3 5 5 5 4 4 3 2 1 0 0 0 0 0 0 0 0 0 0 0 0
2 1 0 0 0 0 0 0 0 0 0 0 0 0 0 0 0 0 0 0 0 0 0 0 0 1 2 2 4 6 6 5 4 3 3 1 1 1 1 0 0 0 0 0 0 0 0 0 0
2 1 0 0 0 0 0 0 0 0 0 0 0 0 0 0 0 0 0 0 0 0 0 0 0 1 2 3 4 6 6 4 3 3 2 1 0 0 1 1 1 0 0 0 0 0 0 0 0
2 1 0 0 0 0 0 0 0 0 0 0 0 0 0 0 0 0 0 0 0 0 0 0 0 1 2 2 3 5 6 4 3 2 1 1 1 0 1 2 2 1 1 1 1 1 0 0 0
1 0 0 0 1 1 1 0 0 0 0 0 0 0 0 0 0 0 0 0 0 0 0 0 0 0 1 1 1 4 5 3 1 1 1 1 1 0 0 1 2 2 2 2 2 2 1 1 1
0 0 0 0 0 0 0 0 0 0 1 1 0 0 0 1 1 0 0 0 0 0 0 0 0 0 0 0 0 2 3 1 0 0 0 1 1 0 0 0 1 1 2 3 3 3 2 2 2
1 1 1 0 0 0 0 0 0 0 1 1 1 1 2 3 2 0 0 0 0 0 0 0 1 0 0 0 0 1 1 1 0 0 0 0 0 0 0 0 0 1 1 2 3 3 3 2 1
2 2 2 1 1 1 0 0 0 0 0 2 4 4 5 4 2 0 0 0 0 0 0 0 0 0 0 0 0 0 0 0 0 0 0 0 0 0 0 0 0 0 0 1 1 1 1 1 0
3 3 2 1 1 1 0 0 0 1 2 5 9 9 7 4 1 0 0 0 0 1 0 0 0 0 0 0 0 0 0 0 0 0 0 0 0 0 0 0 0 0 0 0 0 0 0 0 0
2 2 2 1 1 1 1 0 2 4 5 9 13 11 7 3 1 0 0 0 0 0 0 0 0 0 0 0 0 0 0 0 0 0 0 0 0 0 0 0 0 0 0 0 0 0 0 0 0
1 1 2 2 2 2 2 2 3 7 10 14 14 11 6 3 1 1 1 1 0 0 0 0 0 0 0 0 0 0 0 0 0 0 0 0 0 0 0 0 0 0 0 0 0 0 0 0 0
0 0 2 2 2 2 2 2 4 9 14 16 15 11 6 2 0 1 2 1 0 0 0 0 0 0 0 0 0 0 0 0 0 0 0 0 0 0 0 0 0 0 0 0 0 0 0 0 0
0 0 1 2 2 2 1 1 4 11 17 18 15 11 7 4 2 1 1 1 0 0 0 0 0 0 0 0 0 0 0 0 0 0 0 0 0 0 0 0 0 0 0 0 0 0 0 0 0
0 0 0 1 2 3 2 1 4 12 17 17 14 10 9 7 5 2 0 0 0 0 0 0 0 1 0 0 0 0 0 0 0 0 0 0 0 0 0 0 0 0 0 0 0 0 0 0 0
0 0 0 1 2 3 3 2 4 11 17 16 12 8 7 8 6 4 2 1 0 0 0 0 0 1 1 1 1 1 0 0 0 0 0 0 0 0 1 1 0 0 0 0 0 0 0 0 0
0 0 0 0 1 2 2 1 4 11 17 17 13 9 6 5 4 5 5 2 0 0 0 0 1 1 2 2 2 1 0 0 1 1 1 1 0 0 1 1 1 0 0 0 0 0 0 1 1
0 0 0 0 0 1 1 1 3 9 15 16 14 11 7 4 4 6 7 4 1 1 1 2 3 3 3 2 1 1 0 0 1 2 2 2 1 1 1 2 2 1 0 0 0 1 1 1 2
0 0 0 0 0 0 1 2 2 5 9 11 12 11 9 8 8 9 9 7 4 3 4 6 5 4 3 2 1 1 1 1 2 3 3 3 3 2 2 3 3 2 1 0 0 0 0 1 1
0 0 0 0 0 0 1 1 1 2 4 6 9 11 11 11 12 13 14 13 10 8 8 8 7 4 2 2 2 3 4 4 3 3 3 3 3 3 3 4 4 3 1 0 0 0 0 0 0
0 0 0 0 0 0 0 0 1 2 3 4 7 11 12 14 16 18 18 17 14 11 10 10 8 4 2 1 2 4 5 4 3 3 3 2 3 3 4 4 5 4 3 1 0 0 0 0 0
0 0 0 0 0 0 0 0 0 1 2 3 5 8 12 14 17 19 19 18 16 14 13 12 9 6 4 3 3 4 4 3 2 2 2 3 3 3 3 4 4 5 4 2 0 0 1 1 1
0 0 0 0 0 0 0 0 0 0 1 3 4 7 9 11 14 17 19 19 18 18 18 16 13 9 7 5 4 4 3 2 1 1 2 3 3 4 4 4 4 5 5 3 2 2 2 3 2
0 0 0 0 0 0 0 0 0 1 3 5 6 7 7 8 10 14 18 20 21 23 23 22 20 15 10 8 7 5 3 2 1 0 1 2 4 5 5 5 5 6 6 5 5 5 4 3 2
0 0 0 0 0 0 0 0 1 3 5 7 8 9 8 8 9 11 15 19 21 23 24 25 24 20 15 12 10 8 6 5 3 1 1 2 3 5 5 5 5 6 6 7 8 8 6 3 1
0 0 0 0 0 0 0 0 1 3 6 8 9 10 9 9 10 10 13 18 19 19 22 24 24 23 20 18 16 12 10 9 7 5 4 4 4 4 5 5 6 6 6 7 8 10 9 5 3
0 0 0 0 0 0 0 1 2 4 5 6 8 9 9 9 10 11 12 16 18 19 21 24 24 23 23 23 21 17 13 11 11 11 9 6 5 4 5 6 5 5 6 8 10 11 12 10 8
0 0 0 0 0 0 1 2 3 4 4 4 6 8 8 9 10 12 13 15 19 21 22 24 25 24 24 26 26 22 17 13 13 14 11 7 5 5 5 5 5 4 6 10 11 12 13 12 12
Wind_Speed
6 4 2 0 3 5 3 2 1 2 3 3 5 6 6 4 2 3 2 5 6 6 6 10 13 14 14 15 16 17 17 17 17 17 17 16 15 14 14 13 12 12 12 12 12 12 12 12 11
4 4 1 2 5 4 3 2 2 2 4 4 5 6 6 4 4 5 3 5 7 7 6 9 14 14 14 15 15 17 17 16 16 16 16 15 14 13 13 12 11 11 11 11 11 11 11 11 11
4 3 1 3 4 2 1 0 3 5 4 3 4 5 5 3 4 3 4 7 7 6 6 9 15 14 14 14 15 16 16 16 16 15 14 13 13 12 12 11 10 10 10 10 10 10 10 9 9
2 1 2 4 3 1 2 2 4 5 4 5 5 5 4 3 3 4 8 9 9 6 6 9 14 14 14 15 15 15 15 15 14 14 13 12 12 11 11 10 9 9 9 9 9 9 8 8 8
1 2 4 4 2 2 1 2 2 3 3 4 5 5 4 4 7 10 9 8 8 6 5 7 13 13 14 14 15 14 14 14 13 13 12 11 11 10 10 9 9 8 8 7 7 7 7 7 6
2 3 5 2 2 2 2 2 3 5 5 4 5 4 3 3 8 8 8 7 6 6 5 6 12 13 12 13 14 14 14 13 13 12 11 10 9 9 8 8 8 7 6 5 5 6 6 5 5
3 3 2 1 1 1 1 2 3 4 4 3 4 5 3 4 6 8 7 7 6 5 5 4 5 7 11 12 12 13 13 12 11 11 10 9 9 8 7 7 6 6 5 4 4 4 5 4 4
3 3 2 1 2 1 2 2 2 4 4 5 4 6 5 6 8 8 8 6 5 5 4 4 4 4 4 6 11 12 12 11 10 10 9 8 7 6 5 5 4 4 4 3 3 3 3 2 2
2 4 0 3 4 2 3 3 2 3 6 3 3 4 7 13 12 10 8 5 4 4 3 3 4 4 3 3 7 8 10 9 8 6 7 6 3 2 2 3 3 3 2 2 2 1 2 2 2
3 2 3 3 4 4 4 4 5 4 4 3 6 8 13 14 12 11 10 8 6 5 3 3 3 3 3 3 3 2 3 3 2 2 3 2 2 1 1 1 1 2 1 1 1 1 2 2 2
3 3 3 1 3 4 5 4 4 7 3 5 9 14 15 14 11 10 9 8 7 6 4 3 3 3 3 2 3 2 2 2 2 2 2 2 1 1 1 1 1 1 1 2 2 2 1 1 1
2 3 2 1 2 4 5 4 4 4 3 6 12 16 16 14 12 11 10 8 6 5 5 4 4 3 3 3 3 2 2 1 1 1 2 2 1 1 0 0 0 1 1 1 1 1 1 1 1
1 2 1 2 3 3 5 3 4 2 5 12 14 14 14 12 10 8 8 7 6 6 5 5 4 4 3 3 2 3 2 2 2 1 1 2 1 1 1 0 0 0 0 0 0 1 1 1 2
2 1 2 2 3 2 5 2 3 3 10 13 14 13 12 11 10 8 7 7 7 7 6 5 5 4 4 3 2 2 2 2 1 1 2 2 2 2 1 1 0 0 1 1 1 1 1 1 1
2 4 5 3 2 1 5 2 2 6 11 12 12 11 10 9 9 9 9 8 8 7 6 6 6 5 5 4 3 2 2 2 2 1 2 2 2 2 2 1 1 1 1 1 0 1 0 1 1
4 4 2 2 2 2 5 2 3 9 12 11 10 11 10 9 9 8 8 7 7 7 7 7 7 6 5 4 3 2 2 2 2 2 2 2 3 3 2 2 2 2 1 1 1 0 0 1 1
5 2 1 2 1 2 3 3 4 9 11 10 10 10 10 8 8 8 8 8 8 8 7 7 6 6 6 5 3 2 2 2 2 2 2 2 3 3 3 2 2 2 1 1 1 1 1 1 1
2 1 1 3 2 2 2 3 4 9 10 9 9 9 9 10 10 9 8 8 7 7 7 7 6 5 5 4 2 1 1 1 2 2 2 3 3 3 3 2 2 2 1 1 1 1 1 1 1
3 2 3 4 2 2 2 2 4 8 8 8 8 8 9 10 8 8 8 8 7 7 7 7 7 5 5 3 3 2 2 2 2 2 3 3 3 3 3 2 2 2 2 2 2 1 1 1 0
3 1 2 3 1 2 1 1 3 8 11 10 10 10 10 8 7 8 8 8 9 9 8 8 7 6 6 4 3 2 2 2 2 1 2 3 3 4 4 4 3 3 2 2 2 2 1 0 1
1 3 3 2 2 4 2 3 1 3 6 6 7 8 9 10 10 10 10 10 9 10 10 9 8 7 6 5 3 2 1 1 0 1 1 2 3 3 3 4 3 3 3 3 3 3 3 1 1
3 4 4 2 3 2 2 2 6 3 4 8 9 9 11 11 10 9 10 10 10 10 9 8 8 7 6 6 5 6 4 4 4 2 2 2 3 3 4 4 4 3 3 3 3 3 2 2 1
4 1 2 2 3 2 2 2 7 1 5 9 11 11 12 11 11 11 11 12 10 9 9 8 7 7 7 7 7 6 5 4 2 2 2 2 2 3 4 4 4 4 3 3 3 3 3 2 2
4 6 6 6 5 1 2 3 7 4 7 6 9 10 10 10 10 10 9 9 9 9 8 8 8 8 7 7 7 7 7 5 4 3 3 3 2 2 3 4 4 4 4 4 4 3 4 3 3
5 6 5 5 4 5 2 2 9 7 5 6 7 8 8 8 9 9 10 10 10 11 11 10 9 9 8 8 8 8 7 7 6 5 4 4 2 3 4 4 4 4 4 4 4 3 3 3 3
3 8 8 5 5 5 1 5 8 5 4 3 3 4 4 5 7 9 11 11 11 12 11 11 11 10 9 9 8 7 6 5 5 5 4 4 4 4 4 4 4 4 4 4 4 3 4 3 3
5 3 5 7 2 1 5 6 9 3 3 2 0 2 4 5 6 8 9 9 10 10 11 12 11 10 9 9 8 7 7 6 5 5 5 4 3 4 4 4 4 4 4 4 4 3 4 3 3
5 8 6 6 5 3 5 4 5 6 5 3 1 2 3 4 4 6 7 8 9 9 9 9 11 11 9 9 9 8 7 7 6 5 5 4 4 4 3 4 4 4 4 4 4 3 3 3 3
3 4 5 4 5 6 3 7 6 7 5 4 4 3 3 4 4 4 4 6 7 7 7 8 9 9 9 9 8 7 7 7 6 6 6 5 4 4 4 4 4 4 4 4 4 4 4 4 4
3 5 7 5 4 4 4 8 5 4 3 3 3 2 1 2 2 2 2 3 4 6 7 8 8 8 9 8 8 8 7 7 7 7 7 5 5 5 4 4 4 4 4 4 5 5 5 5 5
Wind_Direction
169 153 150 114 53 48 24 357 63 76 62 52 77 83 90 75 88 133 135 136 129 135 135 134 132 128 124 122 122 123 123 122 121 121 120 120 118 117 114 112 110 108 104 102 102 101 101 100 100
153 162 190 52 71 57 349 352 73 87 130 128 80 73 74 61 63 102 126 135 131 132 129 136 136 131 127 125 124 125 125 124 123 122 121 121 121 120 117 115 114 110 107 104 103 101 101 101 100
172 199 72 62 73 129 194 358 107 101 105 84 73 61 69 82 104 118 138 132 122 124 125 140 136 133 130 129 127 127 126 126 125 125 124 123 123 123 121 118 115 112 108 105 103 101 102 102 102
165 79 51 62 56 222 180 159 124 117 73 55 85 70 62 68 114 126 127 126 120 121 126 135 134 132 131 131 130 129 128 126 125 125 125 126 127 126 124 121 118 114 110 107 105 102 101 101 102
96 79 57 45 12 355 97 131 117 97 75 70 79 81 53 30 101 118 123 125 124 120 120 133 135 133 133 133 134 132 131 129 128 128 128 129 129 127 126 123 120 116 112 109 108 104 104 105 104
59 65 72 53 7 18 67 68 82 86 89 91 87 87 59 101 118 128 123 119 121 121 119 128 138 137 137 138 138 136 134 132 132 132 130 129 128 128 127 124 122 120 116 113 110 109 105 103 101
90 79 95 124 104 44 143 86 100 109 101 107 109 96 98 125 127 127 118 111 108 110 113 114 124 134 139 141 141 140 139 136 135 136 135 134 134 134 133 130 128 127 125 123 117 111 105 101 96
128 93 69 121 149 199 141 102 100 110 105 113 112 131 156 157 132 119 109 105 107 103 106 109 107 109 118 135 146 147 145 143 142 142 141 140 137 136 135 130 136 137 137 136 125 116 102 93 84
110 69 145 203 173 183 143 121 97 83 106 102 91 123 140 137 131 123 120 116 124 122 105 109 114 117 120 127 153 150 149 149 146 144 142 132 101 93 112 139 152 153 156 151 146 122 90 68 49
90 112 233 212 174 157 148 139 140 116 105 88 77 92 122 138 141 143 148 151 152 154 147 126 126 126 127 137 113 104 114 115 113 107 108 94 93 94 112 172 188 173 167 128 137 77 51 47 37
144 196 240 254 167 141 140 140 136 129 166 180 152 142 143 147 152 157 161 163 167 166 163 151 142 135 132 118 109 104 99 97 100 114 117 105 87 73 48 32 9 17 38 38 35 36 42 39 34
168 256 217 171 120 134 149 142 123 155 198 153 147 147 150 157 163 167 169 170 163 163 171 160 151 142 142 131 123 130 130 128 134 146 149 136 130 110 103 63 27 31 39 42 25 15 1 349 323
197 278 70 121 108 113 111 114 122 117 105 122 133 144 156 163 168 171 168 164 162 172 180 171 159 157 152 142 147 148 159 166 166 160 164 163 167 176 162 186 111 69 78 142 313 318 325 324 320
198 82 49 60 87 108 113 89 97 127 127 132 144 155 165 170 169 167 168 171 177 181 183 174 169 167 160 163 167 166 166 169 160 166 184 180 178 180 180 191 199 221 213 219 227 259 285 294 298
77 59 33 31 69 114 108 64 175 147 140 145 156 163 171 178 177 181 182 181 184 184 180 180 180 171 170 179 186 186 176 162 166 187 190 187 185 187 181 187 211 227 206 201 221 273 275 276 286
45 53 32 311 100 127 120 226 188 151 152 158 167 173 178 185 189 190 187 185 183 180 180 188 187 176 177 183 189 189 179 169 188 192 188 192 192 187 180 193 219 216 199 195 198 216 312 293 290
32 54 293 296 193 137 149 223 179 163 163 170 177 183 186 188 195 194 192 188 184 183 182 183 186 180 181 181 183 186 178 186 199 195 194 199 199 192 186 201 216 194 189 200 228 187 193 252 284
225 215 249 248 245 142 177 231 167 177 178 181 185 189 193 198 202 195 192 189 183 181 180 183 184 181 172 164 159 158 174 213 209 207 206 201 201 195 188 201 211 190 187 207 207 210 213 225 245
174 174 247 255 223 153 206 230 182 178 187 191 193 195 200 208 201 189 189 187 180 180 180 184 182 181 166 161 168 174 200 212 218 220 217 210 204 199 192 203 199 194 201 215 208 192 208 236 178
159 171 268 304 21 132 188 265 204 190 201 201 199 200 204 207 196 192 189 187 186 189 190 189 189 182 181 182 171 171 172 196 207 222 219 213 209 206 204 199 203 199 200 207 201 182 178 242 137
177 190 223 230 14 37 62 337 270 220 211 214 212 206 207 208 204 198 193 193 189 193 195 196 192 188 188 179 149 133 98 56 145 223 228 225 212 209 207 202 201 200 194 206 210 189 186 207 216
246 222 190 155 96 328 74 285 289 241 224 222 219 212 212 211 205 200 197 196 197 200 195 192 190 190 188 176 173 177 186 202 212 209 216 229 217 214 208 203 200 201 197 207 216 192 187 179 212
212 93 104 102 120 61 18 150 287 269 241 238 226 219 217 209 202 198 199 200 198 195 192 192 187 191 188 184 186 187 200 208 202 193 211 229 230 223 215 206 199 203 204 210 213 200 195 190 196
137 67 55 51 68 33 253 166 277 244 228 242 227 221 216 208 203 199 197 193 193 190 189 187 187 195 190 189 191 194 197 198 198 208 215 229 231 232 225 212 207 207 205 210 211 207 206 207 205
91 88 37 8 14 256 264 189 250 257 240 231 230 219 212 201 195 191 189 191 194 192 192 189 189 198 195 194 199 202 202 198 204 208 212 217 222 228 230 219 212 211 212 212 204 200 212 210 210
165 139 154 187 217 272 309 231 254 275 282 256 226 201 190 191 195 198 197 197 197 195 192 190 192 200 197 197 201 201 199 203 210 210 209 213 219 226 223 214 214 215 210 209 196 203 211 205 215
134 156 158 133 148 277 282 285 300 307 336 346 145 163 185 197 200 205 202 196 194 194 193 193 193 198 199 199 197 198 200 205 209 207 208 213 221 225 217 213 213 212 206 203 194 209 218 209 215
131 140 99 115 144 232 284 279 263 285 290 305 282 214 214 204 203 206 200 195 193 193 193 193 195 198 197 196 201 206 205 205 204 200 208 213 218 222 212 214 215 214 211 206 199 211 217 212 223
108 94 103 111 148 159 231 266 234 231 240 231 237 228 213 210 212 207 203 194 185 182 184 191 197 196 196 198 200 205 203 201 199 203 213 214 212 208 209 212 212 214 217 211 206 216 212 215 229
150 153 143 148 207 174 181 261 283 244 248 227 233 238 220 212 209 205 185 164 169 178 186 191 196 200 202 197 196 203 202 198 203 211 213 207 206 207 208 207 210 218 220 212 213 220 218 217 225